Change the Weather History Date:

Sunday, June 2, 2013

  Actual Average Record
Temperature  
Mean Temperature 62 °F 73 °F  
Max Temperature 75 °F 85 °F 100 °F (1953)
Min Temperature 48 °F 61 °F 43 °F (1917)
Degree Days  
Heating Degree Days 3 0  
Month to date heating degree days 3 0  
Since 1 June heating degree days 3 0  
Since 1 July heating degree days 4522 4455  
Cooling Degree Days 0 8  
Month to date cooling degree days 0 16  
Year to date cooling degree days 143 172  
Since 1 June cooling degree days 0 16  
Growing Degree Days 10 (Base 50)    
Moisture  
Dew Point 47 °F    
Average Humidity 63    
Maximum Humidity 93    
Minimum Humidity 33    
Precipitation  
Precipitation 0.00 in 0.15 in 4.00 in (1971)
Month to date precipitation 0.01 0.29  
Year to date precipitation 10.36 10.03  
Snow  
Snow 0.00 in 0.00 in - ()
Month to date snowfall 0.0 0.0  
Since 1 June snowfall 0.0 0.0  
Since 1 July snowfall 25.0 8.5  
Snow Depth 0.00 in    
Sea Level Pressure  
Sea Level Pressure 30.07 in    
Wind  
Wind Speed 7 mph (NE)    
Max Wind Speed 16 mph    
Max Gust Speed 21 mph    
T = Trace of Precipitation, MM = Missing Value Source: NWS Daily Summary

Daily Weather History Graph

Daily Weather History Graph

Search for Another Location

Airport or City:

Trip Planner

Search our weather history database for the weather conditions in past years. The results will help you decide how hot, cold, wet, or windy it might be!

Date:

Astronomy

Jun. 02, 2013 Rise Set
Actual Time 6:14 AM CDT 8:49 PM CDT
Civil Twilight 5:44 AM CDT 9:20 PM CDT
Nautical Twilight 5:06 AM CDT 9:58 PM CDT
Astronomical Twilight 4:24 AM CDT 10:40 PM CDT
Moon 2:35 AM CDT (6/2) 3:28 PM CDT (6/2)
Length of Visible Light 15h 36m
Length of Day
14h 35m
Waning Crescent, 30% of the Moon is Illuminated
Jun 2
Waning Crescent
Jun 8
New
Jun 16
First Quarter
Jun 23
Full
Jun 29
Last Quarter

Hourly Weather History & Observations

Time (CDT) Temp. Dew Point Humidity Pressure Visibility Wind Dir Wind Speed Gust Speed Precip Events Conditions
12:56 AM 54.0 °F 48.9 °F 83% 30.09 in - North 5.8 mph - N/A   Unknown
1:56 AM 53.1 °F 48.9 °F 86% 30.10 in - North 5.8 mph - N/A   Unknown
2:56 AM 51.1 °F 48.0 °F 89% 30.11 in - North 5.8 mph - N/A   Unknown
3:56 AM 51.1 °F 48.0 °F 89% 30.11 in - North 3.5 mph - N/A   Unknown
4:56 AM 48.9 °F 46.9 °F 93% 30.11 in - Calm Calm - N/A   Unknown
5:56 AM 48.0 °F 46.0 °F 93% 30.12 in - North 3.5 mph - N/A   Unknown
6:56 AM 48.9 °F 46.0 °F 90% 30.14 in - Calm Calm - N/A   Unknown
7:56 AM 54.0 °F 48.9 °F 83% 30.15 in - North 3.5 mph - N/A   Unknown
8:56 AM 57.9 °F 48.0 °F 70% 30.17 in - NNE 8.1 mph - N/A   Unknown
9:56 AM 61.0 °F 48.9 °F 64% 30.15 in - North 9.2 mph - N/A   Unknown
10:56 AM 64.0 °F 48.0 °F 56% 30.14 in - North 11.5 mph 19.6 mph N/A   Unknown
11:56 AM 66.9 °F 48.0 °F 51% 30.14 in - North 10.4 mph 18.4 mph N/A   Unknown
12:56 PM 68.0 °F 48.0 °F 49% 30.12 in - North 8.1 mph 18.4 mph N/A   Unknown
1:56 PM 71.1 °F 48.0 °F 44% 30.09 in - NNE 13.8 mph 18.4 mph N/A   Unknown
2:56 PM 72.0 °F 48.0 °F 43% 30.06 in - North 10.4 mph - N/A   Unknown
3:56 PM 73.9 °F 46.0 °F 37% 30.04 in - NE 9.2 mph - N/A   Unknown
4:56 PM 73.0 °F 45.0 °F 37% 30.01 in - ENE 3.5 mph - N/A   Unknown
5:56 PM 73.0 °F 44.1 °F 35% 30.00 in - ENE 6.9 mph - N/A   Unknown
6:56 PM 73.0 °F 42.1 °F 33% 30.00 in - ESE 3.5 mph - N/A   Unknown
7:56 PM 71.1 °F 46.0 °F 41% 29.99 in - East 4.6 mph - N/A   Unknown
8:56 PM 64.9 °F 46.0 °F 50% 29.99 in - East 8.1 mph - N/A   Unknown
9:56 PM 62.1 °F 46.9 °F 58% 29.98 in - ESE 6.9 mph - N/A   Unknown
10:56 PM 60.1 °F 46.9 °F 62% 30.00 in - ESE 6.9 mph - N/A   Unknown
11:56 PM 57.9 °F 46.9 °F 67% 29.98 in - ESE 6.9 mph - N/A   Unknown